Voltar ao catálogo

STARLINK-31750

AtivoComunicaçõesVLEO
NORAD 59552·PAYLOAD·🇺🇸 United States

Lançado Apr 18, 2024 de Cape Canaveral Space Force Station

Loading…

Próximas Passagens (próximas 24 horas)

TLE

AtualizadoSource: CelesTrak SupGP

Época: Sep 15, 2026, 03:12 UTC

1 59552C 24074U   26258.13381944  .00041543  00000+0  15043-2 0  2588
2 59552  43.0030 353.6714 0001523 267.9652 213.1506 15.27566261    15

Acompanhe STARLINK-31750 em tempo real com AllMySat

Download on the App Store